Regional Weather Roundup
Issued by NWS Jackson, KY

Home | Current Version | Previous Version | Text Only | Print | Product List | Glossary Off
Versions: 1 2 3 4 5 6 7 8 9 10 11 12 13 14 15 16 17 18 19 20 21 22 23 24 25 26 27 28 29 30 31 32 33 34 35 36 37 38 39 40 41 42 43 44 45 46 47 48 49 50

000
ASUS43 KJKL 102310
RWRJKL

EAST KENTUCKY HOURLY WEATHER ROUNDUP
NATIONAL WEATHER SERVICE JACKSON KY
600 PM EST SUN DEC 10 2017

NOTE: "FAIR" INDICATES FEW OR NO CLOUDS BELOW 12,000 FEET WITH
NO SIGNIFICANT WEATHER AND/OR OBSTRUCTIONS TO VISIBILITY.

* THESE REPORTS ARE NOT UNDER NWS QUALITY CONTROL AND MAY NOT
  REPORT WEATHER SUCH AS PRECIPITATION AND FOG.

KYZ079-080-083-085-087-088-110-112-115-119-120-110000
...EASTERN KENTUCKY...

CITY           SKY/WX    TMP DP  RH WIND       PRES   REMARKS
JACKSON        CLEAR     34  16  47 SW5       30.02F WCI  30
LONDON         CLEAR     38  15  39 SW7       30.05F WCI  33
SOMERSET*      CLEAR     36  18  48 S6        30.08S WCI  31
MONTICELLO*    PTCLDY    36  19  50 W10       30.09S WCI  28
WILLIAMSBURG*  CLEAR     37  16  41 S6        30.07S WCI  33
MIDDLESBORO*   CLEAR     38  19  47 S3        30.11S
HARLAN APT*    PTCLDY    36  16  44 CALM      30.07F
PIKE CO APT*     N/A     35  13  40 S3        30.02F
BIG SANDY APT* CLOUDY    37  15  40 S7        30.02F WCI  31
MOREHEAD APT*  CLOUDY    36  16  44 S7        30.03R WCI  30
$$

KYZ035-036-041-042-044-050-067-078-099-110000
...CENTRAL KENTUCKY...

CITY           SKY/WX    TMP DP  RH WIND       PRES   REMARKS
MT STERLING*   CLEAR     34  19  55 SW9       30.04R WCI  26
FLEMING/MASON* CLEAR     31  19  61 SW8       30.04R WCI  24
DANVILLE*      CLEAR     34  19  55 SW9       30.05R WCI  26
LEXINGTON      CLEAR     33  19  56 SW9       30.03R WCI  25
FRANKFORT      CLEAR     35  18  49 SW8       30.03R WCI  29
LOUISVILLE     CLEAR     40  19  43 SW7       30.04R
LEBANON*         N/A     36  19  51 S12       30.04R WCI  27
GLASGOW*       CLEAR     37  20  49 SW5       30.08R WCI  34
BOWLING GREEN  CLEAR     42  21  43 SW6       30.09R
$$

KYZ091>093-OHZ055-061-077-WVZ005-015-034-035-042-110000
...SOUTHERN OHIO/WEST VIRGINIA...

CITY           SKY/WX    TMP DP  RH WIND       PRES   REMARKS
COVINGTON      PTCLDY    33  20  58 SW7       30.00R WCI  27
COLUMBUS       CLOUDY    32  21  64 SW7       29.99R WCI  26
DAYTON         CLOUDY    30  21  69 SW9       29.99R WCI  22
WILMINGTON     CLEAR     28  20  71 SW12      29.99R WCI  18
HUNTINGTON     CLOUDY    37  15  40 SW7       30.02S WCI  32
CHARLESTON     CLOUDY    37  15  40 SW8       30.02S WCI  31
PINEVILLE*       N/A     31  24  74 MISG      30.06F
BECKLEY        CLOUDY    31  16  54 SW8       29.98S WCI  23
BLUEFIELD      CLEAR     29  12  49 W8        30.00S WCI  21
LOGAN CO APT*  CLOUDY    36  14  41 CALM      30.00F
$$

VAZ002-007-008-TNZ017-027-036-066-071-110000
...SOUTHWEST VIRGINIA/EAST TENNESSEE...

CITY           SKY/WX    TMP DP  RH WIND       PRES   REMARKS
WISE*          PTCLDY    32  18  55 S7        30.03S WCI  26
JONESVILLE*      N/A     36  18  48 CALM      30.13S
ABINGDON*      CLEAR     33  20  59 W6        30.08F WCI  28
BRISTOL        PTCLDY    32  19  58 SW7       30.11F WCI  26
MORRISTOWN*    CLEAR     36  19  51 SW6       30.11F WCI  31
SEVIERVILLE*   CLEAR     37  19  48 CALM      30.14F
KNOXVILLE      PTCLDY    37  24  59 SW12      30.13F WCI  29
LAFOLLETTE*    CLEAR     39  19  45 S6        30.13F WCI  35
OAK RIDGE      CLEAR     41  22  46 VRB6      30.14F
CROSSVILLE     CLOUDY    38  14  37 VRB5      30.09F WCI  34
NASHVILLE      PTCLDY    46  18  32 SW8       30.12R
$$

...KEY TO REMARKS...
VSB - VISIBILITY IN MILES
WCI - WIND CHILL INDEX
HX  - HEAT INDEX

$$



USA.gov is the U.S. government's official web portal to all federal, state and local government web resources and services.